| time (UTC) | temp F | wind direction | speed knots | gust knots | rain 1hr in | rain 24hr in | rain mn in | humidity % | barometer mb |
| 20260506231623 | 44 | 26 | 1.7 | 4.3 | 0.02 | 0.67 | 0.67 | 97 | 1010.0 |
| 20260506231121 | 44 | 18 | 2.6 | 3.5 | 0.07 | 0.67 | 0.67 | 98 | 1010.1 |
| 20260506230617 | 44 | 18 | 2.6 | 5.2 | 0.05 | 0.66 | 0.66 | 98 | 1009.7 |
| 20260506230115 | 44 | 27 | 1.7 | 4.3 | 0.00 | 0.65 | 0.65 | 98 | 1009.9 |
| 20260506225611 | 44 | 19 | 2.6 | 4.3 | 0.00 | 0.65 | 0.65 | 97 | 1010.0 |
| 20260506225107 | 44 | 18 | 2.6 | 5.2 | 0.00 | 0.65 | 0.65 | 98 | 1010.0 |
| 20260506224604 | 44 | 20 | 2.6 | 7.0 | 0.00 | 0.65 | 0.65 | 97 | 1010.0 |
| 20260506224101 | 44 | 22 | 0.9 | 4.3 | 0.00 | 0.65 | 0.65 | 98 | 1010.0 |
| 20260506223557 | 44 | 21 | 2.6 | 5.2 | 0.00 | 0.65 | 0.65 | 98 | 1009.8 |
| 20260506223053 | 44 | 9 | 3.5 | 4.3 | 0.00 | 0.65 | 0.65 | 97 | 1009.9 |
| 20260506222550 | 44 | 14 | 4.3 | 7.0 | 0.02 | 0.65 | 0.65 | 98 | 1009.9 |
| 20260506222046 | 44 | 10 | 3.5 | 5.2 | 0.02 | 0.65 | 0.65 | 98 | 1010.0 |
| 20260506221544 | 44 | 17 | 3.5 | 4.3 | 0.00 | 0.65 | 0.65 | 98 | 1009.9 |
| 20260506221042 | 44 | 28 | 3.5 | 5.2 | 0.00 | 0.65 | 0.65 | 98 | 1009.8 |
| 20260506220538 | 43 | 16 | 5.2 | 6.1 | 0.00 | 0.65 | 0.65 | 98 | 1010.0 |
| 20260506220034 | 44 | 26 | 2.6 | 4.3 | 0.00 | 0.65 | 0.65 | 98 | 1010.2 |
| 20260506215531 | 44 | 10 | 2.6 | 3.5 | 0.00 | 0.65 | 0.65 | 98 | 1010.3 |
| 20260506215026 | 44 | 7 | 1.7 | 5.2 | 0.00 | 0.65 | 0.65 | 98 | 1010.2 |
| 20260506214523 | 44 | 16 | 3.5 | 5.2 | 0.00 | 0.65 | 0.65 | 98 | 1010.2 |
| 20260506214020 | 44 | 356 | 2.6 | 5.2 | 0.00 | 0.65 | 0.65 | 98 | 1010.0 |
| 20260506213519 | 44 | 11 | 3.5 | 4.3 | 0.00 | 0.65 | 0.65 | 98 | 1010.0 |
| 20260506213015 | 44 | 19 | 3.5 | 4.3 | 0.02 | 0.65 | 0.65 | 98 | 1010.0 |
| 20260506212512 | 44 | 7 | 4.3 | 4.3 | 0.02 | 0.65 | 0.65 | 98 | 1009.8 |
| 20260506212007 | 43 | 2 | 2.6 | 5.2 | 0.00 | 0.65 | 0.65 | 98 | 1010.0 |
| 20260506211503 | 44 | 338 | 4.3 | 7.0 | 0.00 | 0.65 | 0.65 | 98 | 1010.0 |
| 20260506211001 | 44 | 339 | 2.6 | 3.5 | 0.00 | 0.65 | 0.65 | 98 | 1009.8 |
| 20260506210456 | 44 | 10 | 2.6 | 4.3 | 0.02 | 0.65 | 0.65 | 98 | 1009.9 |
| 20260506205954 | 44 | 13 | 5.2 | 5.2 | 0.02 | 0.65 | 0.65 | 98 | 1009.4 |
| 20260506205450 | 44 | 10 | 5.2 | 7.0 | 0.00 | 0.64 | 0.64 | 98 | 1009.6 |
| 20260506204946 | 44 | 8 | 3.5 | 5.2 | 0.00 | 0.64 | 0.64 | 98 | 1009.6 |
| 20260506204444 | 44 | 19 | 4.3 | 4.3 | 0.02 | 0.64 | 0.64 | 98 | 1009.7 |
| 20260506203941 | 44 | 21 | 1.7 | 4.3 | 0.05 | 0.64 | 0.64 | 98 | 1009.8 |
| 20260506203438 | 44 | 10 | 3.5 | 5.2 | 0.07 | 0.64 | 0.64 | 98 | 1009.6 |
| 20260506202935 | 44 | 7 | 2.6 | 4.3 | 0.05 | 0.63 | 0.63 | 98 | 1009.6 |
| 20260506202432 | 44 | 18 | 2.6 | 6.1 | 0.02 | 0.63 | 0.63 | 98 | 1009.7 |
| 20260506201928 | 44 | 16 | 1.7 | 4.3 | 0.00 | 0.62 | 0.62 | 98 | 1009.7 |
| 20260506201426 | 44 | 28 | 2.6 | 4.3 | 0.00 | 0.62 | 0.62 | 98 | 1009.6 |
| 20260506200923 | 44 | 35 | 2.6 | 5.2 | 0.02 | 0.62 | 0.62 | 98 | 1009.7 |
| 20260506200419 | 44 | 313 | 0.9 | 5.2 | 0.02 | 0.62 | 0.62 | 98 | 1009.8 |
| 20260506195915 | 44 | 9 | 2.6 | 5.2 | 0.00 | 0.62 | 0.62 | 98 | 1009.7 |
| 20260506195413 | 44 | 6 | 1.7 | 3.5 | 0.00 | 0.62 | 0.62 | 98 | 1009.8 |
| 20260506194909 | 44 | 350 | 0.9 | 3.5 | 0.00 | 0.62 | 0.62 | 98 | 1009.7 |
| 20260506194406 | 44 | 353 | 3.5 | 4.3 | 0.00 | 0.62 | 0.62 | 98 | 1009.6 |
| 20260506193903 | 44 | 0 | 2.6 | 5.2 | 0.00 | 0.62 | 0.62 | 98 | 1009.8 |
| 20260506193400 | 44 | 352 | 2.6 | 6.1 | 0.02 | 0.62 | 0.62 | 98 | 1009.6 |
| 20260506192857 | 44 | 24 | 1.7 | 4.3 | 0.05 | 0.62 | 0.62 | 98 | 1009.5 |
| 20260506192354 | 44 | 303 | 3.5 | 7.0 | 0.02 | 0.61 | 0.61 | 98 | 1009.8 |
| 20260506191851 | 44 | 306 | 2.6 | 6.1 | 0.02 | 0.61 | 0.61 | 98 | 1009.5 |
| 20260506191347 | 44 | 320 | 1.7 | 3.5 | 0.05 | 0.61 | 0.61 | 98 | 1009.8 |
| 20260506190844 | 44 | 355 | 2.6 | 3.5 | 0.05 | 0.61 | 0.61 | 98 | 1009.6 |
| 20260506190340 | 44 | 48 | 2.6 | 3.5 | 0.05 | 0.60 | 0.60 | 98 | 1009.5 |
| 20260506185837 | 44 | 355 | 2.6 | 3.5 | 0.07 | 0.60 | 0.60 | 98 | 1009.6 |
| 20260506185334 | 44 | 20 | 0.9 | 4.3 | 0.07 | 0.59 | 0.59 | 98 | 1009.8 |
| 20260506184831 | 44 | 13 | 2.6 | 3.5 | 0.05 | 0.59 | 0.59 | 98 | 1009.8 |
| 20260506184328 | 44 | 5 | 3.5 | 4.3 | 0.05 | 0.58 | 0.58 | 98 | 1009.8 |
| 20260506183826 | 44 | 6 | 1.7 | 3.5 | 0.05 | 0.58 | 0.58 | 97 | 1009.7 |
| 20260506183320 | 44 | 5 | 2.6 | 5.2 | 0.05 | 0.57 | 0.57 | 98 | 1010.0 |
| 20260506182818 | 43 | 32 | 2.6 | 7.0 | 0.05 | 0.57 | 0.57 | 98 | 1009.9 |
| 20260506182315 | 43 | 19 | 1.7 | 5.2 | 0.05 | 0.57 | 0.57 | 97 | 1009.8 |
| 20260506181813 | 43 | 351 | 1.7 | 10.4 | 0.02 | 0.56 | 0.56 | 98 | 1010.0 |
| 20260506181311 | 43 | 5 | 1.7 | 5.2 | 0.02 | 0.56 | 0.56 | 98 | 1009.8 |
| 20260506180808 | 43 | 11 | 2.6 | 5.2 | 0.02 | 0.56 | 0.56 | 97 | 1010.1 |
| 20260506180303 | 43 | 0 | 3.5 | 4.3 | 0.02 | 0.56 | 0.56 | 98 | 1010.3 |
| 20260506175800 | 44 | 341 | 3.5 | 5.2 | 0.02 | 0.56 | 0.56 | 98 | 1010.0 |
| 20260506175257 | 43 | 0 | 4.3 | 5.2 | 0.05 | 0.55 | 0.55 | 97 | 1010.2 |
| 20260506174754 | 43 | 6 | 3.5 | 5.2 | 0.02 | 0.55 | 0.55 | 98 | 1010.3 |
| 20260506174252 | 43 | 1 | 2.6 | 5.2 | 0.02 | 0.54 | 0.54 | 97 | 1010.3 |
| 20260506173749 | 43 | 347 | 2.6 | 6.1 | 0.07 | 0.54 | 0.54 | 98 | 1010.6 |
| 20260506173246 | 43 | 13 | 2.6 | 5.2 | 0.09 | 0.54 | 0.54 | 98 | 1010.6 |
| 20260506172742 | 43 | 358 | 3.5 | 6.1 | 0.12 | 0.53 | 0.53 | 98 | 1010.5 |
| 20260506172239 | 43 | 320 | 3.5 | 5.2 | 0.12 | 0.52 | 0.52 | 97 | 1010.6 |
| 20260506171737 | 43 | 358 | 1.7 | 6.1 | 0.12 | 0.51 | 0.51 | 97 | 1010.6 |
| 20260506171234 | 42 | 7 | 3.5 | 6.1 | 0.12 | 0.50 | 0.50 | 97 | 1010.9 |
| 20260506170731 | 42 | 347 | 3.5 | 5.2 | 0.09 | 0.49 | 0.49 | 97 | 1010.7 |
| 20260506170228 | 42 | 322 | 2.6 | 5.2 | 0.09 | 0.48 | 0.48 | 97 | 1010.5 |
| 20260506165726 | 42 | 12 | 5.2 | 6.1 | 0.07 | 0.47 | 0.47 | 97 | 1010.3 |
| 20260506165223 | 42 | 16 | 4.3 | 6.1 | 0.05 | 0.47 | 0.47 | 97 | 1010.5 |
| 20260506164720 | 42 | 5 | 4.3 | 4.3 | 0.05 | 0.46 | 0.46 | 97 | 1010.7 |
| 20260506164217 | 43 | 15 | 3.5 | 5.2 | 0.05 | 0.46 | 0.46 | 97 | 1010.8 |
| 20260506163713 | 43 | 312 | 3.5 | 4.3 | 0.05 | 0.45 | 0.45 | 97 | 1010.6 |
| 20260506163208 | 43 | 13 | 4.3 | 4.3 | 0.05 | 0.45 | 0.45 | 97 | 1010.7 |
| 20260506162705 | 43 | 19 | 3.5 | 6.1 | 0.05 | 0.45 | 0.45 | 97 | 1010.9 |
| 20260506162202 | 43 | 9 | 3.5 | 5.2 | 0.07 | 0.44 | 0.44 | 97 | 1010.5 |
| 20260506161700 | 43 | 5 | 3.5 | 6.1 | 0.07 | 0.43 | 0.43 | 97 | 1010.8 |
| 20260506161156 | 43 | 14 | 4.3 | 9.6 | 0.12 | 0.43 | 0.43 | 97 | 1010.7 |
| 20260506160654 | 43 | 0 | 2.6 | 5.2 | 0.12 | 0.42 | 0.42 | 97 | 1010.8 |
| 20260506160150 | 43 | 17 | 7.0 | 7.8 | 0.09 | 0.41 | 0.41 | 97 | 1010.8 |
| 20260506155649 | 43 | 4 | 4.3 | 6.1 | 0.12 | 0.40 | 0.40 | 97 | 1010.8 |
| 20260506155146 | 43 | 353 | 1.7 | 7.8 | 0.12 | 0.36 | 0.36 | 97 | 1011.1 |
| 20260506153248 | 43 | 12 | 3.5 | 4.3 | 0.12 | 0.35 | 0.35 | 97 | 1011.2 |
| 20260506152745 | 43 | 0 | 3.5 | 7.0 | 0.12 | 0.35 | 0.35 | 97 | 1011.1 |
| 20260506152242 | 43 | 342 | 2.6 | 6.1 | 0.09 | 0.34 | 0.34 | 96 | 1011.3 |
| 20260506151741 | 43 | 1 | 5.2 | 6.1 | 0.12 | 0.33 | 0.33 | 96 | 1011.1 |
| 20260506151237 | 43 | 313 | 2.6 | 6.1 | 0.12 | 0.32 | 0.32 | 96 | 1011.4 |
| 20260506150734 | 43 | 352 | 3.5 | 7.8 | 0.09 | 0.31 | 0.31 | 96 | 1011.4 |
| 20260506150231 | 44 | 316 | 3.5 | 6.1 | 0.12 | 0.30 | 0.30 | 96 | 1011.2 |
| 20260506145728 | 43 | 8 | 2.6 | 5.2 | 0.09 | 0.29 | 0.29 | 96 | 1011.1 |
| 20260506145224 | 43 | 347 | 5.2 | 6.1 | 0.07 | 0.28 | 0.28 | 96 | 1011.2 |
| 20260506144722 | 44 | 348 | 2.6 | 4.3 | 0.07 | 0.28 | 0.28 | 96 | 1011.0 |
| 20260506144219 | 44 | 316 | 1.7 | 3.5 | 0.07 | 0.27 | 0.27 | 96 | 1011.0 |
| 20260506143716 | 44 | 316 | 4.3 | 6.1 | 0.07 | 0.26 | 0.26 | 96 | 1010.8 |
| 20260506143214 | 44 | 356 | 1.7 | 4.3 | 0.07 | 0.26 | 0.26 | 96 | 1011.0 |
| 20260506142712 | 44 | 357 | 0.9 | 3.5 | 0.05 | 0.25 | 0.25 | 96 | 1010.8 |
| 20260506142210 | 44 | 298 | 1.7 | 3.5 | 0.07 | 0.24 | 0.24 | 96 | 1011.1 |
| 20260506141708 | 44 | 347 | 0.0 | 3.5 | 0.05 | 0.24 | 0.24 | 96 | 1011.0 |
| 20260506141206 | 44 | 352 | 3.5 | 5.2 | 0.05 | 0.23 | 0.23 | 96 | 1010.9 |
| 20260506140703 | 44 | 356 | 2.6 | 4.3 | 0.05 | 0.23 | 0.23 | 96 | 1011.0 |
| 20260506140200 | 44 | 337 | 1.7 | 7.0 | 0.05 | 0.22 | 0.22 | 96 | 1010.9 |
| 20260506135657 | 44 | 307 | 1.7 | 4.3 | 0.05 | 0.22 | 0.22 | 96 | 1010.8 |
| 20260506135153 | 44 | 6 | 2.6 | 4.3 | 0.07 | 0.22 | 0.22 | 96 | 1010.8 |
| 20260506134650 | 45 | 1 | 4.3 | 4.3 | 0.07 | 0.21 | 0.21 | 96 | 1011.0 |
| 20260506134146 | 45 | 7 | 1.7 | 4.3 | 0.07 | 0.20 | 0.20 | 96 | 1010.9 |
| 20260506133643 | 0 | 6 | 2.6 | 3.5 | 0.07 | 0.20 | 0.20 | 1011.0 | |
| 20260506133140 | 0 | 313 | 5.2 | 8.7 | 0.05 | 0.19 | 0.19 | 1011.1 | |
| 20260506132637 | 0 | 321 | 2.6 | 9.6 | 0.05 | 0.19 | 0.19 | 1011.1 | |
| 20260506132134 | 0 | 11 | 1.7 | 6.1 | 0.05 | 0.18 | 0.18 | 1011.1 | |
| 20260506131632 | 0 | 349 | 2.6 | 4.3 | 0.05 | 0.18 | 0.18 | 1010.9 | |
| 20260506131127 | 0 | 7 | 3.5 | 4.3 | 0.05 | 0.18 | 0.18 | 1010.9 | |
| 20260506130625 | 0 | 10 | 2.6 | 3.5 | 0.07 | 0.17 | 0.17 | 1011.0 | |
| 20260506130122 | 0 | 4 | 1.7 | 5.2 | 0.07 | 0.17 | 0.17 | 1010.8 | |
| 20260506125620 | 0 | 12 | 0.9 | 8.7 | 0.05 | 0.16 | 0.16 | 1011.1 | |
| 20260506125117 | 0 | 357 | 2.6 | 6.1 | 0.05 | 0.16 | 0.16 | 1011.0 | |
| 20260506124615 | 0 | 12 | 3.5 | 8.7 | 0.07 | 0.15 | 0.15 | 1011.2 | |
| 20260506124113 | 0 | 7 | 4.3 | 5.2 | 0.07 | 0.15 | 0.15 | 1011.4 | |
| 20260506123610 | 0 | 300 | 7.0 | 7.8 | 0.07 | 0.14 | 0.14 | 1011.5 | |
| 20260506123109 | 0 | 318 | 7.0 | 7.0 | 0.09 | 0.13 | 0.13 | 1012.1 | |
| 20260506122605 | 0 | 8 | 4.3 | 13.0 | 0.12 | 0.13 | 0.13 | 1010.3 | |
| 20260506122103 | 0 | 276 | 5.2 | 13.0 | 0.07 | 0.12 | 0.12 | 1012.0 | |
| 20260506121601 | 0 | 21 | 8.7 | 14.8 | 0.05 | 0.11 | 0.11 | 1010.4 | |
| 20260506121056 | 0 | 307 | 6.1 | 13.0 | 0.05 | 0.11 | 0.11 | 1012.2 | |
| 20260506120555 | 0 | 10 | 4.3 | 7.0 | 0.05 | 0.10 | 0.10 | 1011.0 | |
| 20260506120051 | 0 | 358 | 4.3 | 4.3 | 0.05 | 0.10 | 0.10 | 1011.4 | |
| 20260506115549 | 0 | 4 | 3.5 | 5.2 | 0.05 | 0.09 | 0.09 | 1011.1 | |
| 20260506115048 | 0 | 2 | 2.6 | 5.2 | 0.05 | 0.09 | 0.09 | 1011.2 | |
| 20260506114545 | 0 | 1 | 2.6 | 4.3 | 0.02 | 0.09 | 0.09 | 1011.1 | |
| 20260506114043 | 0 | 8 | 2.6 | 5.2 | 0.00 | 0.08 | 0.08 | 1011.3 | |
| 20260506113541 | 0 | 10 | 2.6 | 4.3 | 0.00 | 0.08 | 0.08 | 1011.2 | |
| 20260506113038 | 0 | 27 | 1.7 | 3.5 | 0.00 | 0.08 | 0.08 | 1011.4 | |
| 20260506112534 | 0 | 14 | 4.3 | 5.2 | 0.00 | 0.08 | 0.08 | 1011.3 | |
| 20260506112032 | 0 | 39 | 1.7 | 4.3 | 0.02 | 0.08 | 0.08 | 1011.1 | |
| 20260506111530 | 0 | 3 | 0.9 | 4.3 | 0.02 | 0.08 | 0.08 | 1011.1 | |
| 20260506111026 | 0 | 8 | 4.3 | 5.2 | 0.00 | 0.08 | 0.08 | 1010.9 | |
| 20260506110524 | 0 | 16 | 1.7 | 12.2 | 0.00 | 0.08 | 0.08 | 1010.9 | |
| 20260506110021 | 0 | 292 | 0.0 | 5.2 | 0.00 | 0.08 | 0.08 | 1011.0 | |
| 20260506105517 | 0 | 8 | 3.5 | 5.2 | 0.02 | 0.08 | 0.08 | 1011.0 | |
| 20260506105015 | 0 | 10 | 2.6 | 10.4 | 0.02 | 0.08 | 0.08 | 1011.1 | |
| 20260506104513 | 0 | 13 | 3.5 | 6.1 | 0.00 | 0.07 | 0.07 | 1010.8 | |
| 20260506104010 | 0 | 22 | 4.3 | 5.2 | 0.00 | 0.07 | 0.07 | 1010.6 | |
| 20260506103507 | 0 | 17 | 5.2 | 7.8 | 0.02 | 0.07 | 0.07 | 1010.6 | |
| 20260506103004 | 0 | 5 | 4.3 | 7.0 | 0.02 | 0.07 | 0.07 | 1010.7 | |
| 20260506102502 | 0 | 16 | 2.6 | 7.8 | 0.00 | 0.07 | 0.07 | 1010.6 | |
| 20260506101959 | 0 | 8 | 5.2 | 6.1 | 0.00 | 0.07 | 0.07 | 1010.6 | |
| 20260506101455 | 0 | 9 | 3.5 | 5.2 | 0.00 | 0.07 | 0.07 | 1010.3 | |
| 20260506100953 | 0 | 20 | 5.2 | 6.1 | 0.00 | 0.07 | 0.07 | 1010.4 | |
| 20260506100451 | 0 | 19 | 4.3 | 4.3 | 0.00 | 0.07 | 0.07 | 1010.4 | |
| 20260506095949 | 0 | 20 | 2.6 | 7.8 | 0.00 | 0.07 | 0.07 | 1010.1 | |
| 20260506095447 | 0 | 27 | 5.2 | 5.2 | 0.00 | 0.07 | 0.07 | 1010.6 | |
| 20260506094943 | 0 | 23 | 5.2 | 9.6 | 0.02 | 0.07 | 0.07 | 1010.2 | |
| 20260506094442 | 0 | 31 | 7.8 | 8.7 | 0.02 | 0.07 | 0.07 | 1010.4 | |
| 20260506093939 | 0 | 4 | 1.7 | 3.5 | 0.00 | 0.07 | 0.07 | 1010.8 | |
| 20260506093437 | 0 | 31 | 6.1 | 8.7 | 0.05 | 0.07 | 0.07 | 1010.3 | |
| 20260506092934 | 0 | 45 | 6.1 | 9.6 | 0.31 | 0.07 | 0.07 | 1010.4 | |
| 20260506092432 | 0 | 47 | 5.2 | 7.0 | 0.26 | 0.06 | 0.06 | 1010.7 | |
| 20260506091928 | 0 | 275 | 2.6 | 5.2 | 0.00 | 0.02 | 0.02 | 1011.9 | |
| 20260506091427 | 0 | 21 | 3.5 | 7.0 | 0.00 | 0.02 | 0.02 | 1010.4 | |
| 20260506090924 | 0 | 35 | 8.7 | 13.0 | 0.00 | 0.02 | 0.02 | 1010.0 | |
| 20260506090421 | 0 | 21 | 3.5 | 4.3 | 0.00 | 0.02 | 0.02 | 1010.7 | |
| 20260506085918 | 0 | 27 | 6.1 | 10.4 | 0.00 | 0.02 | 0.02 | 1010.4 | |
| 20260506085414 | 0 | 36 | 5.2 | 7.0 | 0.00 | 0.02 | 0.02 | 1010.7 | |
| 20260506084911 | 0 | 0 | 3.5 | 5.2 | 0.00 | 0.02 | 0.02 | 1010.6 | |
| 20260506084408 | 0 | 13 | 2.6 | 7.8 | 0.00 | 0.02 | 0.02 | 1010.2 | |
| 20260506083904 | 0 | 18 | 3.5 | 12.2 | 0.00 | 0.02 | 0.02 | 1010.4 | |
| 20260506083401 | 0 | 29 | 9.6 | 11.3 | 0.00 | 0.02 | 0.02 | 1010.4 | |
| 20260506082859 | 0 | 351 | 1.7 | 4.3 | 0.00 | 0.02 | 0.02 | 1010.8 | |
| 20260506082355 | 0 | 36 | 3.5 | 9.6 | 0.00 | 0.02 | 0.02 | 1010.3 | |
| 20260506081851 | 0 | 17 | 4.3 | 7.0 | 0.00 | 0.02 | 0.02 | 1010.4 | |
| 20260506081350 | 0 | 21 | 3.5 | 5.2 | 0.00 | 0.02 | 0.02 | 1010.4 | |
| 20260506080847 | 0 | 17 | 4.3 | 5.2 | 0.00 | 0.02 | 0.02 | 1010.5 | |
| 20260506080343 | 0 | 17 | 3.5 | 3.5 | 0.00 | 0.02 | 0.02 | 1010.8 | |
| 20260506073328 | 0 | 39 | 3.5 | 3.5 | 0.05 | 0.01 | 0.01 | 1010.5 | |
| 20260506072824 | 0 | 259 | 3.5 | 7.0 | 0.00 | 0.00 | 0.00 | 1011.3 | |
| 20260506072322 | 0 | 29 | 2.6 | 5.2 | 0.00 | 0.00 | 0.00 | 1009.8 | |
| 20260506071820 | 0 | 20 | 1.7 | 2.6 | 0.00 | 0.00 | 0.00 | 1010.0 | |
| 20260506071317 | 0 | 27 | 2.6 | 2.6 | 0.00 | 0.00 | 0.00 | 1010.1 | |
| 20260506070814 | 0 | 344 | 1.7 | 2.6 | 0.00 | 0.00 | 0.00 | 1010.2 | |
| 20260506070311 | 0 | 44 | 0.0 | 2.6 | 0.00 | 0.00 | 0.00 | 1010.1 | |
| 20260506062248 | 0 | 16 | 0.0 | 2.6 | 0.00 | 0.00 | 0.00 | 1010.3 | |
| 20260506061744 | 0 | 143 | 1.7 | 2.6 | 0.00 | 0.00 | 0.00 | 1010.5 | |
| 20260506061241 | 0 | 311 | 2.6 | 4.3 | 0.00 | 0.00 | 0.00 | 1009.7 | |
| 20260506060740 | 0 | 350 | 0.0 | 1.7 | 0.00 | 0.00 | 0.00 | 1010.0 | |
| 20260506060237 | 0 | 329 | 0.9 | 2.6 | 0.00 | 0.00 | 0.00 | 1009.9 | |
| 20260506051203 | 0 | 246 | 1.7 | 4.3 | 0.00 | 0.00 | 0.00 | 1010.5 | |
| 20260506050701 | 0 | 199 | 3.5 | 6.1 | 0.00 | 0.00 | 0.00 | 1010.5 | |
| 20260506050158 | 0 | 184 | 5.2 | 6.1 | 0.00 | 0.00 | 0.00 | 1010.3 | |
| 20260506044649 | 0 | 183 | 2.6 | 2.6 | 0.00 | 0.00 | 0.00 | 1010.6 | |
| 20260506044145 | 0 | 153 | 0.9 | 3.5 | 0.00 | 0.00 | 0.00 | 1010.7 | |
| 20260506043643 | 0 | 68 | 2.6 | 5.2 | 0.00 | 0.00 | 0.00 | 1010.4 | |
| 20260506043141 | 0 | 137 | 0.0 | 3.5 | 0.00 | 0.00 | 0.00 | 1010.2 | |
| 20260506042640 | 0 | 81 | 3.5 | 4.3 | 0.00 | 0.00 | 0.00 | 1009.8 | |
| 20260506042137 | 0 | 113 | 3.5 | 5.2 | 0.00 | 0.00 | 0.00 | 1009.9 | |
| 20260506041636 | 0 | 127 | 2.6 | 4.3 | 0.00 | 0.00 | 0.00 | 1009.9 | |
| 20260506041132 | 0 | 128 | 3.5 | 5.2 | 0.00 | 0.00 | 0.00 | 1009.8 | |
| 20260506040630 | 0 | 121 | 3.5 | 7.0 | 0.00 | 0.00 | 0.00 | 1010.4 | |
| 20260506040126 | 0 | 82 | 3.5 | 5.2 | 0.00 | 0.00 | 0.00 | 1009.9 | |
| 20260506035623 | 0 | 87 | 4.3 | 5.2 | 0.02 | 0.11 | 0.11 | 1009.5 | |
| 20260506035120 | 0 | 74 | 4.3 | 6.1 | 0.02 | 0.11 | 0.11 | 1009.7 | |
| 20260506034617 | 0 | 49 | 5.2 | 7.8 | 0.00 | 0.10 | 0.10 | 1009.5 | |
| 20260506034114 | 0 | 99 | 2.6 | 5.2 | 0.00 | 0.10 | 0.10 | 1010.2 | |
| 20260506033611 | 0 | 105 | 4.3 | 7.0 | 0.00 | 0.10 | 0.10 | 1010.0 | |
| 20260506033108 | 0 | 97 | 7.0 | 8.7 | 0.02 | 0.10 | 0.10 | 1009.9 | |
| 20260506032606 | 0 | 123 | 3.5 | 6.1 | 0.07 | 0.10 | 0.10 | 1010.0 | |
| 20260506032102 | 0 | 104 | 5.2 | 5.2 | 0.12 | 0.10 | 0.10 | 1010.0 | |
| 20260506031600 | 0 | 47 | 1.7 | 2.6 | 0.05 | 0.09 | 0.09 | 1009.9 | |
| 20260506031056 | 0 | 28 | 1.7 | 4.3 | 0.00 | 0.08 | 0.08 | 1009.7 | |
| 20260506030555 | 0 | 31 | 4.3 | 6.1 | 0.00 | 0.08 | 0.08 | 1009.5 | |
| 20260506030052 | 0 | 27 | 3.5 | 5.2 | 0.00 | 0.08 | 0.08 | 1009.8 | |
| 20260506025549 | 0 | 25 | 3.5 | 4.3 | 0.00 | 0.08 | 0.08 | 1009.5 | |
| 20260506025044 | 0 | 303 | 4.3 | 7.8 | 0.00 | 0.08 | 0.08 | 1009.6 | |
| 20260506024542 | 0 | 299 | 0.9 | 2.6 | 0.00 | 0.08 | 0.08 | 1009.2 | |
| 20260506024038 | 0 | 173 | 1.7 | 5.2 | 0.00 | 0.08 | 0.08 | 1009.0 | |
| 20260506023534 | 0 | 178 | 3.5 | 4.3 | 0.00 | 0.08 | 0.08 | 1008.9 | |
| 20260506023032 | 0 | 164 | 4.3 | 6.1 | 0.00 | 0.08 | 0.08 | 1008.8 | |
| 20260506022529 | 0 | 166 | 3.5 | 4.3 | 0.00 | 0.08 | 0.08 | 1008.8 | |
| 20260506022027 | 0 | 157 | 3.5 | 7.0 | 0.00 | 0.08 | 0.08 | 1008.8 | |
| 20260506021524 | 0 | 156 | 6.1 | 7.8 | 0.00 | 0.08 | 0.08 | 1008.7 | |
| 20260506021021 | 0 | 154 | 4.3 | 6.1 | 0.00 | 0.08 | 0.08 | 1008.6 | |
| 20260506020519 | 0 | 157 | 4.3 | 6.1 | 0.00 | 0.08 | 0.08 | 1008.6 | |
| 20260506020016 | 0 | 159 | 6.1 | 7.0 | 0.00 | 0.08 | 0.08 | 1008.8 | |
| 20260506015513 | 0 | 157 | 4.3 | 7.8 | 0.00 | 0.08 | 0.08 | 1008.4 | |
| 20260506015010 | 0 | 133 | 7.8 | 7.8 | 0.00 | 0.08 | 0.08 | 1008.3 | |
| 20260506014508 | 0 | 123 | 4.3 | 5.2 | 0.00 | 0.08 | 0.08 | 1008.2 | |
| 20260506014003 | 0 | 145 | 3.5 | 4.3 | 0.00 | 0.08 | 0.08 | 1008.3 | |
| 20260506013501 | 0 | 143 | 2.6 | 4.3 | 0.00 | 0.08 | 0.08 | 1008.3 | |
| 20260506012957 | 0 | 166 | 3.5 | 3.5 | 0.00 | 0.08 | 0.08 | 1008.2 | |
| 20260506012454 | 0 | 214 | 1.7 | 3.5 | 0.00 | 0.08 | 0.08 | 1008.4 | |
| 20260506011951 | 0 | 235 | 2.6 | 4.3 | 0.00 | 0.08 | 0.08 | 1008.3 | |
| 20260506011448 | 0 | 227 | 2.6 | 3.5 | 0.00 | 0.08 | 0.08 | 1008.5 | |
| 20260506010945 | 0 | 209 | 1.7 | 3.5 | 0.00 | 0.08 | 0.08 | 1008.3 | |
| 20260506010444 | 0 | 203 | 1.7 | 4.3 | 0.00 | 0.08 | 0.08 | 1008.1 | |
| 20260506005939 | 0 | 131 | 3.5 | 7.0 | 0.00 | 0.08 | 0.08 | 1007.3 | |
| 20260506005438 | 0 | 110 | 6.1 | 8.7 | 0.00 | 0.08 | 0.08 | 1007.1 | |
| 20260506004932 | 0 | 153 | 7.0 | 7.8 | 0.00 | 0.08 | 0.08 | 1007.6 | |
| 20260506004431 | 0 | 169 | 5.2 | 6.1 | 0.00 | 0.08 | 0.08 | 1007.7 | |
| 20260506003926 | 0 | 165 | 4.3 | 5.2 | 0.00 | 0.08 | 0.08 | 1007.6 | |
| 20260506003423 | 0 | 158 | 4.3 | 5.2 | 0.00 | 0.08 | 0.08 | 1007.3 | |
| 20260506002920 | 0 | 155 | 4.3 | 5.2 | 0.00 | 0.08 | 0.08 | 1007.2 | |
| 20260506002416 | 0 | 155 | 5.2 | 7.0 | 0.00 | 0.08 | 0.08 | 1007.1 | |
| 20260506001911 | 0 | 154 | 5.2 | 7.0 | 0.00 | 0.08 | 0.08 | 1007.2 | |
| 20260506001409 | 0 | 156 | 7.0 | 9.6 | 0.00 | 0.08 | 0.08 | 1007.2 | |
| 20260506000906 | 0 | 152 | 8.7 | 9.6 | 0.00 | 0.08 | 0.08 | 1007.3 | |
| 20260506000403 | 0 | 159 | 6.1 | 9.6 | 0.00 | 0.08 | 0.08 | 1007.2 | |
| 20260505235900 | 0 | 156 | 7.8 | 9.6 | 0.00 | 0.08 | 0.08 | 1007.2 | |
| 20260505235358 | 0 | 146 | 5.2 | 7.0 | 0.00 | 0.08 | 0.08 | 1007.0 | |
| 20260505234854 | 0 | 149 | 5.2 | 7.0 | 0.00 | 0.08 | 0.08 | 1007.1 | |
| 20260505234352 | 0 | 142 | 5.2 | 7.0 | 0.00 | 0.08 | 0.08 | 1007.0 | |
| 20260505233849 | 0 | 134 | 5.2 | 6.1 | 0.00 | 0.08 | 0.08 | 1007.1 | |
| 20260505233347 | 0 | 157 | 4.3 | 4.3 | 0.00 | 0.08 | 0.08 | 1007.0 | |
| 20260505232844 | 0 | 177 | 3.5 | 5.2 | 0.00 | 0.08 | 0.08 | 1007.1 | |
| 20260505232342 | 0 | 183 | 3.5 | 3.5 | 0.00 | 0.08 | 0.08 | 1006.9 | |
| 20260505231838 | 0 | 191 | 3.5 | 6.1 | 0.00 | 0.08 | 0.08 | 1007.0 |